This is the latest recevied weather packets stored in our database for station/object AD5L. If no packets are shown the sender has not sent any weather packets the latest 10 day(s).
| Time | Temp. | Humidity | Pressure | Rain* | Wind** | Luminosity | Snow |
|---|---|---|---|---|---|---|---|
| 1777775024 | 16.67° C | 75% | 1020.9 hPa | 0 mm | - | - | - |
| 1777774413 | 17.22° C | 70% | 1020.8 hPa | 0 mm | - | - | - |
| 1777773825 | 17.78° C | 67% | 1020.8 hPa | 0 mm | - | - | - |
| 1777773208 | 18.33° C | 65% | 1020.8 hPa | 0 mm | - | - | - |
| 1777772627 | 18.89° C | 64% | 1020.7 hPa | 0 mm | - | - | - |
| 1777772009 | 19.44° C | 62% | 1020.8 hPa | 0 mm | - | - | - |
| 1777771420 | 20° C | 59% | 1020.6 hPa | 0 mm | - | - | - |
| 1777770811 | 20.56° C | 56% | 1020.4 hPa | 0 mm | - | - | - |
| 1777770221 | 21.11° C | 53% | 1020.3 hPa | 0 mm | - | - | - |
| 1777769612 | 21.67° C | 52% | 1020.3 hPa | 0 mm | - | - | - |
| 1777769002 | 22.22° C | 52% | 1020.3 hPa | 0 mm | - | - | - |
| 1777768412 | 22.22° C | 52% | 1020.3 hPa | 0 mm | - | - | - |
| 1777767802 | 22.22° C | 49% | 1020.1 hPa | 0 mm | - | - | - |
| 1777767214 | 22.78° C | 49% | 1020.2 hPa | 0 mm | - | - | - |
| 1777766604 | 22.78° C | 47% | 1020.1 hPa | 0 mm | - | - | - |
| 1777766014 | 22.78° C | 48% | 1020 hPa | 0 mm | - | - | - |
| 1777765404 | 22.78° C | 46% | 1019.9 hPa | 0 mm | - | - | - |
| 1777764816 | 22.78° C | 47% | 1020 hPa | 0 mm | - | - | - |
| 1777764206 | 23.33° C | 45% | 1019.9 hPa | 0 mm | - | - | - |
| 1777763616 | 23.33° C | 43% | 1020 hPa | 0 mm | - | - | - |
| 1777763026 | 23.33° C | 48% | 1019.9 hPa | 0 mm | - | - | - |
| 1777762416 | 23.33° C | 45% | 1019.8 hPa | 0 mm | - | - | - |
| 1777761827 | 23.89° C | 47% | 1019.8 hPa | 0 mm | - | - | - |
| 1777761207 | 23.33° C | 49% | 1019.8 hPa | 0 mm | - | - | - |
| 1777760623 | 23.33° C | 49% | 1020.1 hPa | 0 mm | - | - | - |
* Rain latest hour (hover to see other rain measurements)
** Current wind speed in m/s (hover to see current wind gust speed)